Hourly Data Report for May 01, 2021

TOBERMORY RCS
ONTARIO
Current Station Operator: ECCC - MSC

45°14'00.000" N
81°38'00.000" W
213.50 m
6128330
71767
TTR

Download Data

Hourly Data (May 2021)
Hourly Data Report for May 1, 2021
TIME
LST
Temp Definition
°C
Dew Point Definition
°C
Rel Hum Definition
%
Precip. Amount Definition
mm

Wind Dir Definition
10's deg

Wind Spd Definition
km/h
Visibility Definition
km
Stn Press Definition
kPa
Hmdx Definition


Wind Chill Definition


Weather Definition


00:00 3.3 -0.3 77 0.0 32 8   99.21     LegendNANA
01:00 3.2 -1.5 71 0.0 32 10   99.23     LegendNANA
02:00 1.3 -2.8 74 0.0 33 2   99.24     LegendNANA
03:00 -0.8 -2.2 90 0.0 31 2   99.23   -1 LegendNANA
04:00 -0.2 -2.5 84 0.0 11 6   99.22   -2 LegendNANA
05:00 -0.8 -2.6 88 0.0 16 6   99.19   -3 LegendNANA
06:00 -0.2 -2.2 86 0.0 15 10   99.17   -4 LegendNANA
07:00 2.1 -1.5 77 0.0 16 11   99.12     LegendNANA
08:00 4.2 0.0 74 0.0 18 15   99.12     LegendNANA
09:00 4.2 0.9 79 0.0 20 16   99.08     LegendNANA
10:00 4.3 0.2 74 0.0 20 16   98.96     LegendNANA
11:00 5.3 -1.4 62 0.0 19 20   98.79     LegendNANA
12:00 6.0 -1.6 58 0.0 19 18   98.66     LegendNANA
13:00 5.4 -1.3 62 0.0 19 18   98.46     LegendNANA
14:00 5.0 -1.0 65 0.0 18 18   98.26     LegendNANA
15:00 7.6 -0.2 58 0.0 18 23   97.98     LegendNANA
16:00 6.5 0.0 63 0.0 18 15   98.09     LegendNANA
17:00 5.2 2.1 80 2.5 18 27   97.79     LegendNANA
18:00 6.6 1.7 71 1.4 18 23   97.73     LegendNANA
19:00 7.8 1.0 62 0.0 18 22   97.62     LegendNANA
20:00 7.7 2.0 67 0.0 19 20   97.56     LegendNANA
21:00 7.0 2.4 72 0.0 22 13   97.65     LegendNANA
22:00 6.4 2.8 77 0.0 23 12   97.68     LegendNANA
23:00 4.5 2.1 84 0.0 20 3   97.70     LegendNANA

Notes on Data Quality.

Legend

  • E = Estimated
  • M = Missing
  • NA = Not Available*
  • [empty] = Indicates an unobserved value
Date modified: